Flag for U.S.A. Weather past 2 weeks in Allentown, Pennsylvania, U.S.A.

Now
45 °F

Passing clouds.


Feels Like: 39 °F
Forecast: 35 / 59 °F
Wind: 13 mph from Northwest

Location: Lehigh Valley International Airport


UV Index: 5 (Moderate)

Visibility: 10 mi


Pressure: 29.91 "Hg

Humidity: 44%

Dew point: 24 °F

Location of AllentownLocation

Historic Weather in Allentown

°F

Allentown temperature yesterday

Maximum temperature yesterday: 69 °F (at 12:51 PM)
Minimum temperature yesterday: 43 °F (at 5:51 AM)
Average temperature yesterday: 55 °F

Past Weeks' High & Low Weather Summary

 TemperatureHumidityPressure
High81 °F (Apr 13, 2:51 PM)94% (Apr 12, 3:04 AM)30.71 "Hg (Apr 12, 3:04 AM)
Low27 °F (Apr 16, 5:51 AM)16% (Apr 21, 1:51 PM)29.52 "Hg (Apr 15, 12:51 PM)
Average52 °F55%30.08 "Hg
* Reported Apr 8 9:51 PM — Apr 23 9:51 PM, Allentown, Weather by CustomWeather, © 2014

Note: Actual official high and low records may vary slightly from our data, if they occured in-between our weather recording intervals... More about our weather records

Advertising

Historic Weather Conditions — Data for Previous 24 hours

 ConditionsComfort  
Time TempWeatherWind HumidityBarometerVisibility
9:51 PM
Apr 23
45 °FPassing clouds.13 mph44%29.91 "Hg10 mi
8:51 PM46 °FPassing clouds.24 mph44%29.88 "Hg10 mi
7:51 PM48 °FOvercast.13 mph50%29.83 "Hg10 mi
6:51 PM51 °FOvercast.18 mph48%29.79 "Hg10 mi
5:51 PM52 °FPartly sunny.21 mph49%29.76 "Hg10 mi
4:51 PM54 °FPartly sunny.17 mph47%29.75 "Hg10 mi
3:51 PM55 °FOvercast.17 mph45%29.73 "Hg10 mi
2:51 PM56 °FOvercast.18 mph46%29.72 "Hg10 mi
1:51 PM56 °FPartly sunny.17 mph46%29.70 "Hg10 mi
12:51 PM54 °FMostly cloudy.21 mph49%29.70 "Hg10 mi
11:51 AM52 °FOvercast.21 mph53%29.70 "Hg10 mi
10:51 AM52 °FOvercast.16 mph50%29.69 "Hg1 mi
9:51 AM49 °FMostly cloudy.15 mph57%29.68 "Hg10 mi
8:51 AM47 °FOvercast.16 mph59%29.67 "Hg10 mi
7:51 AM47 °FOvercast.12 mph61%29.66 "Hg10 mi
6:51 AM47 °FMostly cloudy.9 mph61%29.65 "Hg10 mi
5:51 AM47 °FOvercast.10 mph59%29.62 "Hg10 mi
4:51 AM48 °FOvercast.9 mph54%29.61 "Hg10 mi
3:51 AM48 °FOvercast.13 mph52%29.60 "Hg10 mi
2:51 AM48 °FMostly cloudy.12 mph56%29.59 "Hg10 mi
1:51 AM50 °FPassing clouds.16 mph61%29.59 "Hg10 mi
12:51 AM54 °FClear.10 mph62%29.57 "Hg10 mi
11:51 PM
Apr 22
56 °FClear.14 mph70%29.57 "Hg10 mi
Weather by CustomWeather, © 2014

See weather overview